Location: Newark
(45.8667°N, 9.7333°E)
Time: 04:33:09
(UTC+00:00)

A-11 Canister half - Pass Details

Date: 29 January 2020
Orbit: 1517 x 1683 km, 47.2° (Epoch: 19 February)

Event Time Altitude Azimuth Distance (km) Brightness Sun altitude
Rises 03:24:24 0° 290° (WNW) 4,680 - -35.3°
Reaches altitude 10° 03:27:28 10° 288° (WNW) 3,688 - -34.8°
Maximum altitude 03:36:33 63° 210° (SSW) 1,665 - -33.2°
Exits shadow 03:36:42 63° 205° (SSW) 1,667 8.9 -33.2°
Drops below altitude 10° 03:45:40 10° 132° (SE) 3,700 11.4 -31.6°
Sets 03:48:46 0° 129° (SE) 4,696 12.1 -31.1°
